Showing default

OPS 9345 (IDSCS 23), 3288

Orbit data source: Space-Track

OPS 9345 (IDSCS 23), 3288 is a payload satellite owned by SAMSO (US) in GEO that was launched on Thu, 13 Jun 1968 UTC via a TITAN IIIC launch vehicle from the Air Force Eastern Test Range (AFETR). Payload-class satellites include a variety of spacecraft equipped with specific instruments for various scientific and technological missions. These include communications satellites like Starlink; space stations such as the ISS; scientific satellites like the Hubble; Earth observation satellites from companies like Planet Labs, Umbra, and HawkEye 360; GPS; miniature CubeSats for education and research; and military/defense satellites.

Not visible in the next 10 days
Identifier
3288, 1968-050E
Orbit
GEO
Last TLE update
12 hours ago
Origin
Manufacturer
Philco-Ford
Mission
Non-operational Defense Communications
Bus & Motor
IDCSP, Unknown motor
Mass
45 kg wet, 45 kg dry
Launch date (UTC)
1968-06-13 (57 years ago)
Launch vehicle
TITAN IIIC
Launch site
Air Force Eastern Test Range (AFETR)
Object type
Payload
Rocket body
Debris
Shape & HBR
Poly, 0.9 m
Radar Cross Section
0.926 m², Small (<0.1 m²)

Expand to show TLE details & history

TLE from 12 hours ago
0 OPS 9345 (IDSCS 23)
1 03288U 68050E   25181.75940986 -.00000095  00000-0  00000-0 0  9990
2 03288   6.3744  55.9866 0034902 131.3401 122.5334  1.07478542135464
Epoch: 2025-06-30T18:13Z
TLE epoch observation values (Epoch: 2025-06-30T18:13:33.011Z)
Latitude
-6.15564°
Longitude
117.66495°
Altitude
33,956.288 km
Speed
3.141 km/s
True Right ascension
20h 40m 28s
True Declination
-6° 08' 57"
Sunlit
Object was in daylight at epoch
Visualization orbit readout
Latitude
6.39662°
Longitude
-46.26739°
Altitude
33,773.354 km
Speed
3.155 km/s
Apparent Right ascension
09h 23m 08s
Apparent Declination
0° 31' 54"
Sunlit
Object is in daylight
Visualization observer readout
Local Sidereal Time
18:02:53
Azimuth
298.659° NW
Elevation
-29.105°
Doppler factor
1
Orbital elements
Apogee altitude
34,021.641 km
Perigee altitude
33,740.616 km
Semi-major axis
40,259.265 km
Eccentricity
0.00349
Inclination
6.3744°
RAAN
55.9866°
Arg. of periapsis
131.3401°
True anomaly
Unknown
Mean anomaly
122.5334°
Eccentric anomaly
Unknown
Mean motion
0.26869 °/min
Orbital period
1,339.86 mins
BSTAR
0
Loading historical data...
3288 neighbors
Loading maneuver chart data...
Loading SW <> Apogee altitude chart data...
Loading historical data...
Loading historical data...
Loading historical data...
Loading historical data...
Loading historical data...
Loading historical data...
Loading historical data...

OPS 9345 (IDSCS 23) Visibility

Observer location: undefined°, undefined°

OPS 9345 (IDSCS 23) is likely not visible in the next few days
Span
Click to sort rows by Start time (UTC) header in descending order
Start Az.
Max El. time (UTC)
Max El. Az.
Max El.
End time (UTC)
End Az.
|